Tracking 19149 objects as of 22-Apr-2018
HD Live streaming from Space Station
objects crossing your sky now

COSMOS 945

Track COSMOS 945 now!
10-day predictions
COSMOS 945 is classified as:


NORAD ID: 10291
Int'l Code: 1977-079G
Perigee: 1,469.4 km
Apogee: 1,497.2 km
Inclination: 74.0 °
Period: 115.5 minutes
Semi major axis: 7854 km
RCS: 0.7039 m2 (medium)
Launch date: August 24, 1977
Source: Commonwealth of Independent States (former USSR) (CIS)
Launch site: PLESETSK MISSILE AND SPACE COMPLEX (PKMTR)
aabbcc
Your satellite tracking list
Your tracking list is empty




NASA's NSSDC Master Catalog

Two Line Element Set (TLE):
1 10291U 77079G   18111.36844267 -.00000006 +00000-0 +66345-4 0  9990
2 10291 074.0255 063.4147 0017697 029.8448 086.8319 12.47204742829713
Source of the keplerian elements: AFSPC